TimeEDT,TemperatureF,Dew PointF,Humidity,Sea Level PressureIn,VisibilityMPH,Wind Direction,Wind SpeedMPH,Gust SpeedMPH,PrecipitationIn,Events,Conditions,WindDirDegrees,DateUTC
12:58 AM,70.3,55.8,60,30.21,10.0,North,12.7,-,N/A,,Clear,10,2013-10-26 04:58:00
1:58 AM,70.2,55.2,59,30.19,10.0,NNE,12.7,-,N/A,,Clear,30,2013-10-26 05:58:00
2:58 AM,69.6,55.0,60,30.17,10.0,North,10.4,-,N/A,,Clear,10,2013-10-26 06:58:00
3:58 AM,68.7,54.1,60,30.16,10.0,North,10.4,-,N/A,,Clear,10,2013-10-26 07:58:00
4:58 AM,68.2,54.0,60,30.16,10.0,North,5.8,-,N/A,,Clear,360,2013-10-26 08:58:00
5:58 AM,68.2,55.2,63,30.16,10.0,North,6.9,-,N/A,,Clear,350,2013-10-26 09:58:00
6:58 AM,68.4,55.2,63,30.17,10.0,North,8.1,-,N/A,,Clear,350,2013-10-26 10:58:00
7:58 AM,68.0,55.8,65,30.19,10.0,North,6.9,-,N/A,,Clear,350,2013-10-26 11:58:00
8:58 AM,70.2,58.3,66,30.21,10.0,NNW,10.4,-,N/A,,Clear,340,2013-10-26 12:58:00
9:58 AM,72.9,57.4,58,30.22,10.0,NNW,8.1,-,N/A,,Clear,340,2013-10-26 13:58:00
10:58 AM,75.0,57.0,53,30.22,10.0,NNW,9.2,-,N/A,,Clear,330,2013-10-26 14:58:00
11:58 AM,75.4,56.1,51,30.22,10.0,NNW,9.2,-,N/A,,Clear,330,2013-10-26 15:58:00
12:58 PM,76.5,52.5,43,30.19,10.0,NW,5.8,-,N/A,,Clear,320,2013-10-26 16:58:00
1:58 PM,77.2,50.4,39,30.17,10.0,North,4.6,-,N/A,,Clear,360,2013-10-26 17:58:00
2:58 PM,77.7,51.4,40,30.14,10.0,North,3.5,-,N/A,,Clear,350,2013-10-26 18:58:00
3:58 PM,77.5,50.2,38,30.14,10.0,NE,9.2,-,N/A,,Clear,40,2013-10-26 19:58:00
4:58 PM,76.1,56.7,51,30.12,10.0,NNE,11.5,-,N/A,,Clear,30,2013-10-26 20:58:00
5:58 PM,74.5,55.8,52,30.12,10.0,NNE,12.7,-,N/A,,Clear,20,2013-10-26 21:58:00
6:58 PM,72.1,55.6,56,30.12,10.0,North,10.4,-,N/A,,Clear,10,2013-10-26 22:58:00
7:58 PM,71.2,55.6,58,30.12,10.0,North,8.1,-,N/A,,Clear,360,2013-10-26 23:58:00
8:58 PM,70.7,56.3,60,30.14,10.0,North,6.9,-,N/A,,Clear,350,2013-10-27 00:58:00
9:58 PM,70.3,56.3,61,30.16,10.0,North,8.1,-,N/A,,Clear,350,2013-10-27 01:58:00
10:58 PM,69.8,58.5,67,30.17,10.0,North,8.1,-,N/A,,Clear,350,2013-10-27 02:58:00
11:58 PM,69.1,58.1,68,30.14,10.0,North,10.4,-,N/A,,Clear,350,2013-10-27 03:58:00